Other Public Products
Issued by NWS Grand Forks, ND

Home | Current Version | Previous Version | Graphics & Text | Print | Product List | Glossary On
Versions: 1 2 3 4 5 6 7 8 9 10 11 12 13 14 15 16 17 18 19 20 21 22 23 24 25 26 27 28 29 30 31 32 33 34 35 36 37 38 39 40 41 42 43 44 45 46 47 48 49 50
000
FPUS83 KFGF 261831
OPUFGF
PRAIRIE TO PINES WEATHER ROUNDUP
NATIONAL WEATHER SERVICE EASTERN NORTH DAKOTA/GRAND FORKS ND
100 PM CDT THU MAY 26 2016

 **SATELLITE DATA USED TO AUGMENT SKY COVER AT AUTOMATED STATIONS**
 *****  WEATHER ACROSS EASTERN NORTH DAKOTA  *****

CITY           SKY/WX    TMP DP  RH WIND       PRES   REMARKS
GRAND FORKS    CLOUDY    66  56  70 W14       29.73S
6HR MIN TEMP:  58; 6HR MAX TEMP:  67;

GRAND FORKS AF CLOUDY    64  55  72 W9        29.75R
GRAND CITY NWS   N/A     66 N/A N/A W15         N/A
BUXTON           N/A     67  59  74 W12         N/A
DEVILS LAKE    CLOUDY    63  54  72 SW15      29.77S
6HR MIN TEMP:  56; 6HR MAX TEMP:  62;

FARGO          PTSUNNY   68  57  68 SW16      29.78S
6HR MIN TEMP:  56; 6HR MAX TEMP:  69;

WAHPETON ARPT  CLEAR     72  46  40 W17G26    29.80F
$$

 *****  WEATHER ACROSS CENTRAL AND WESTERN NORTH DAKOTA  *****

CITY           SKY/WX    TMP DP  RH WIND       PRES   REMARKS
JAMESTOWN      SUNNY     69  53  56 W17G25    29.79S
6HR MIN TEMP:  54; 6HR MAX TEMP:  69;

BISMARCK       SUNNY     71  48  43 W9        29.80F
6HR MIN TEMP:  47; 6HR MAX TEMP:  71;

MINOT          CLOUDY    64  56  75 E5        29.79F
6HR MIN TEMP:  57; 6HR MAX TEMP:  62; 6HR PCP:  0.10;

MINOT AFB      CLOUDY    63  55  77 NE7       29.79S
6HR MIN TEMP:  55; 6HR MAX TEMP:  61; 6HR PCP:  0.13;

GARRISON         N/A     66  51  58 W9        29.79F
6HR MIN TEMP:  50; 6HR MAX TEMP:  66;

WILLISTON      PTSUNNY   61  49  64 W3        29.81F
6HR MIN TEMP:  48; 6HR MAX TEMP:  62;

DICKINSON      CLOUDY    60  45  57 SW15G23   29.81S
6HR MIN TEMP:  44; 6HR MAX TEMP:  64;

HETTINGER      PTSUNNY   66  41  40 W9G18     29.85F
6HR MIN TEMP:  40; 6HR MAX TEMP:  66;

$$

 *****  OTHER OBSERVATIONS NORTHEAST NORTH DAKOTA  *****

CITY           SKY/WX    TMP DP  RH WIND       PRES   REMARKS
WALHALLA       FAIR      59  59 100 W12G20    29.71R
LANGDON        MOCLDY    63  57  82 NW16G22   29.73F
CAVALIER       MOCLDY    64  55  72 W16       29.70S
GRAFTON        MOCLDY    66  57  72 SW17G24   29.73S
CANDO          MOCLDY    63  52  67 NW14G20   29.78R
FORT TOTTEN      N/A     62  57  84 NW5       29.95S
ROLLA          CLOUDY    59  50  72 N16       29.78R
RUGBY          MOCLDY    63  54  72 NW6       29.77S
 ***** THE ABOVE OBSERVATIONS ARE NON NWS ARE NOT QUALITY
        CONTROLLED AND MAY MIS-REPORT RAIN FOR SNOW...
$$

 *****  OTHER OBSERVATIONS SOUTHEAST NORTH DAKOTA *****

CITY           SKY/WX    TMP DP  RH WIND       PRES   REMARKS
COOPERSTOWN    NOT AVBL
VALLEY CITY    FAIR      66  59  77 W18       29.81F
OAKES            N/A    N/A N/A N/A MISG        N/A
GWINNER        FAIR      72  55  56 W16       29.81F
SHEYENNE NWR     N/A     72  53  52 W14       29.95
BUFFALO          N/A     66  53  62 W17         N/A
WYNDMERE         N/A     73  52  46 W17         N/A
 ***** THE ABOVE OBSERVATIONS ARE NON NWS ARE NOT QUALITY
       CONTROLLED AND MAY MIS-REPORT RAIN FOR SNOW...
$$

  *****  WEATHER ACROSS NORTHERN MINNESOTA  *****

CITY           SKY/WX    TMP DP  RH WIND       PRES   REMARKS
FLAG ISLAND    CLOUDY    61  55  82 S8        29.69S
WARROAD        CLOUDY    64  59  82 SW10      29.71S
ROSEAU         MOSUNNY   66  57  72 SW14G21   29.70F
HALLOCK        PTSUNNY   66  55  68 W17       29.69S
THF RVR FALLS  CLOUDY    64  54  68 SW12      29.76S
6HR MIN TEMP:  57; 6HR MAX TEMP:  64;

HALSTAD        NOT AVBL
FOSSTON        PTSUNNY   66  61  82 SW12      29.77S
BAUDETTE       CLOUDY    69  54  58 SW13G22   29.71S
6HR MIN TEMP:  55; 6HR MAX TEMP:  70;

WASKISH        MOSUNNY   70  57  64 W8        29.75S
CROOKSTON      PTSUNNY   66  57  72 W13       29.76R
$$
  *****  WEATHER ACROSS CENTRAL AND WEST MINNESOTA  *****

CITY           SKY/WX    TMP DP  RH WIND       PRES   REMARKS
BEMIDJI        PTSUNNY   71  54  55 W12G21    29.76R
PARK RAPIDS    MOSUNNY   73  53  49 SW12      29.78R
6HR MIN TEMP:  58; 6HR MAX TEMP:  73;

WADENA         MOSUNNY   68  54  60 W15       29.80S
DETROIT LAKES  PTSUNNY   63  55  77 W8        29.82S
MOORHEAD       MOSUNNY   64  57  77 SW13      29.80S
FERGUS FALLS   MOSUNNY   70  54  56 W13G24    29.78S
ELBOW LAKE     FAIR      73  49  43 NW12G25   29.83R
6HR MIN TEMP:  52; 6HR MAX TEMP:  72;

MORRIS MN      SUNNY     75  46  35 W18G26    29.81S
STAPLES        MOSUNNY   72  52  49 W13       29.80R
WHEATON        SUNNY     77  48  36 W15G24    29.82S
$$
  *****  WEATHER ELSEWHERE ACROSS MINNESOTA  *****

CITY           SKY/WX    TMP DP  RH WIND       PRES   REMARKS
DULUTH         CLOUDY    56  53  90 SE8       29.80F
6HR MIN TEMP:  45; 6HR MAX TEMP:  56;

INTRNTL FALLS  MOSUNNY   69  56  62 VRB7      29.74S
6HR MIN TEMP:  54; 6HR MAX TEMP:  69;

ELY            PTSUNNY   66  55  68 SW3       29.77S
CLOQUET        CLOUDY    57  54  88 CALM      29.80S
BRAINERD       MOSUNNY   75  54  47 W17G24    29.79R
6HR MIN TEMP:  59; 6HR MAX TEMP:  75;

HIBBING        CLOUDY    59  55  87 CALM      29.78S
6HR MIN TEMP:  50; 6HR MAX TEMP:  59;

ALEXANDRIA     SUNNY     73  49  42 W16G23    29.83R
6HR MIN TEMP:  58; 6HR MAX TEMP:  73;

SAINT CLOUD    SUNNY     74  56  53 SW12      29.80S
6HR MIN TEMP:  59; 6HR MAX TEMP:  74;

MINNEAPOLIS    SUNNY     78  53  41 W12G18    29.80S
6HR MIN TEMP:  61; 6HR MAX TEMP:  78;

$$

  *****  WEATHER ACROSS SOUTH DAKOTA  *****

CITY           SKY/WX    TMP DP  RH WIND       PRES   REMARKS
SIOUX FALLS    CLOUDY    74  53  48 N6        29.86F
6HR MIN TEMP:  56; 6HR MAX TEMP:  74;

BROOKINGS      MOSUNNY   72  50  45 W9        29.88S
WATERTOWN      SUNNY     71  49  45 NW12      29.87R
6HR MIN TEMP:  56; 6HR MAX TEMP:  72;

HURON          MOSUNNY   72  53  51 SW8       29.87F
6HR MIN TEMP:  54; 6HR MAX TEMP:  72;

SISSETON         N/A     76  45  33 NW23G32   29.80F
ABERDEEN       SUNNY     73  50  44 SW6       29.85S
6HR MIN TEMP:  50; 6HR MAX TEMP:  74;

MITCHELL       PTSUNNY   73  52  47 CALM      29.87F
PIERRE         PTSUNNY   72  52  49 S14G22    29.85S
6HR MIN TEMP:  50; 6HR MAX TEMP:  72;

MOBRIDGE       SUNNY     71  48  43 SW9       29.81F
RAPID CITY     MOSUNNY   67  43  41 N5        29.90R
6HR MIN TEMP:  47; 6HR MAX TEMP:  68;

$$

  *****  SOME WEATHER IN NEARBY STATES *****

CITY           SKY/WX    TMP DP  RH WIND       PRES   REMARKS
GLASGOW MT     CLOUDY    57  51  80 NW8       29.84F
6HR MIN TEMP:  44; 6HR MAX TEMP:  55; 6HR PCP:  0.13;

GREAT FALLS MT LGT RAIN  51  49  92 W8        29.97S
6HR MIN TEMP:  43; 6HR MAX TEMP:  55; 6HR PCP:  0.10;

CHEYENNE WY    PTSUNNY   62  36  37 SE15G21   29.96F
6HR MIN TEMP:  39; 6HR MAX TEMP:  63;

SCOTTSBLUFF NE MOSUNNY   69  39  33 VRB3      29.91F
6HR MIN TEMP:  43; 6HR MAX TEMP:  71;

OMAHA NE       MOSUNNY   82  57  42 E10       29.83F
6HR MIN TEMP:  60; 6HR MAX TEMP:  82;

DES MOINES IA  CLOUDY    79  64  60 S6        29.88F
6HR MIN TEMP:  62; 6HR MAX TEMP:  79;

DAVENPORT IA   SUNNY     81  66  60 SW12      29.89F
6HR MIN TEMP:  62; 6HR MAX TEMP:  81;

CHICAGO IL     PTSUNNY   78  64  61 S7        29.88F
6HR MIN TEMP:  69; 6HR MAX TEMP:  78;

EAU CLAIRE WI  SUNNY     76  58  53 SW15      29.81S
6HR MIN TEMP:  60; 6HR MAX TEMP:  76; 6HR PCP: TRACE;

LA CROSSE WI   MOSUNNY   78  61  55 VRB7      29.83F
6HR MIN TEMP:  61; 6HR MAX TEMP:  78; 6HR PCP:  0.06;

$$

  *****  SOME NATIONAL WEATHER *****

CITY           SKY/WX    TMP DP  RH WIND       PRES   REMARKS
LA GUARDIA NY  PTSUNNY   91  53  27 SW10      30.04F               C1F1C2F2C3F3C4F4C5F5C6F6C7F7C8F8C9F9CaFaCbFbCcFcCdFdCe!



USA.gov is the U.S. government's official web portal to all federal, state and local government web resources and services.